"Pseudo-MPEC" for C1HP232

Created 2019 Dec 6 14:07:14 UT using Find_Orb

Click here for an explanation of pseudo-MPECs

 
 Astrometry: 
     C1HP232  C2019 12 02.51775 11 15 10.51 +33 54 37.0    ~C2D7 21.2 GVNEOCPG96
     C1HP232  C2019 12 02.52289 11 15 10.81 +33 54 39.5    ~C2D7 22.1 GVNEOCPG96
     C1HP232  C2019 12 02.52801 11 15 11.11 +33 54 42.1    ~C2D7 21.7 GVNEOCPG96
     C1HP232  C2019 12 02.53314 11 15 11.39 +33 54 44.5    ~C2D7 21.7 GVNEOCPG96
     C1HP232  C2019 12 03.43630 11 16 02.53 +34 02 01.3    ~C3Bb 22.1 GVNEOCPG96
     C1HP232  C2019 12 03.45069 11 16 03.35 +34 02 08.7    ~C3Bb 21.6 GVNEOCPG96
     C1HP232  C2019 12 03.46221 11 16 03.96 +34 02 13.7    ~C3Bb 21.7 GVNEOCPG96
     C1HP232  C2019 12 03.47410 11 16 04.63 +34 02 20.3    ~C3Bb 21.6 GVNEOCPG96
     C1HP232  C2019 12 06.46755 11 18 47.26 +34 27 30.0    ~C6Bq       VNEOCPG96
     C1HP232  C2019 12 06.47839 11 18 47.81 +34 27 35.5    ~C6Bq 21.0 GVNEOCPG96
     C1HP232  C2019 12 06.48421 11 18 48.15 +34 27 38.1    ~C6Bq 22.3 GVNEOCPG96

Station data:
(G96) Mt. Lemmon Survey  (N32.442754 W110.788720)  US/Arizona.  Observers T.
   A. Pruyne, B. M. Africano, E. J. Christensen, G. A. Farneth, D. C. Fuls,
   A. R. Gibbs, A. D. Grauer, H. Gröller, J. A. Johnson, R. A. Kowalski, S.
   M. Larson, G. J. Leonard, D. Rankin, R. L. Seaman, F. C. Shelly. 1.5-m
   reflector + 10K CCD.

Orbital elements:  C1HP232
   Perihelion 2019 Jan 9.434457 +/- 20.1 TT = 10:25:37 (JD 2458492.934457)
Epoch 2019 Dec  6.0 TT = JDT 2458823.5                        AutoNEOCP
M  54.22432517 +/- 10               (J2000 ecliptic)
n   0.16403501 +/- 0.021            Peri.  305.75557 +/- 6
a   3.30505227 +/- 0.282            Node    90.12258 +/- 0.9
e   0.4282945 +/- 0.0351            Incl.   32.99735 +/- 0.40
P   6.01                   H 16.5   G  0.15   U 10.2  
q 1.88951635 +/- 0.071    Q 4.72058819 +/- 0.522
From 11 observations 2019 Dec. 2-6; mean residual 0".20
Residuals in arcseconds: 
191202 G96  .20-  .06-    191203 G96  .15-  .03-    191206 G96  .10-  .28+    
191202 G96  .03-  .04-    191203 G96  .18+  .24+    191206 G96  .20-  .09+    
191202 G96  .15+  .09+    191203 G96  .12-  .47-    191206 G96  .30+  .37-    
191202 G96  .08+  .02+    191203 G96  .09+  .24+    

Ephemerides (geocentric):
Date (UTC) HH   RA              Dec         delta   r     elong  mag " sig PA
---- -- -- --  -------------   -----------  ------ ------ -----  --- ---- ---
2019 12 06 14  11 18 53.223   +34 28 30.13  2.7376 3.0192  96.9 22.0 .100 136
2019 12 06 15  11 18 55.410   +34 28 51.83  2.7372 3.0194  97.0 22.0 .119 138
2019 12 06 16  11 18 57.595   +34 29 13.55  2.7369 3.0196  97.0 22.0 .139 139
2019 12 06 17  11 18 59.778   +34 29 35.29  2.7366 3.0198  97.0 22.0 .159 140
2019 12 06 18  11 19 01.960   +34 29 57.04  2.7362 3.0200  97.1 22.0 .179 141
2019 12 06 19  11 19 04.139   +34 30 18.81  2.7359 3.0202  97.1 22.0 .200 141
2019 12 06 20  11 19 06.316   +34 30 40.60  2.7355 3.0203  97.1 22.0 .221 142
2019 12 06 21  11 19 08.491   +34 31 02.41  2.7352 3.0205  97.2 22.0 .243 142
2019 12 06 22  11 19 10.665   +34 31 24.23  2.7348 3.0207  97.2 22.0 .265 142
2019 12 06 23  11 19 12.836   +34 31 46.08  2.7345 3.0209  97.2 22.0 .288 143
2019 12 07 00  11 19 15.005   +34 32 07.93  2.7342 3.0211  97.3 22.0 .311 143
2019 12 07 01  11 19 17.173   +34 32 29.81  2.7338 3.0212  97.3 22.0 .335 143
2019 12 07 02  11 19 19.338   +34 32 51.71  2.7335 3.0214  97.3 22.0 .359 143
2019 12 07 03  11 19 21.501   +34 33 13.62  2.7331 3.0216  97.4 22.0 .383 144
2019 12 07 04  11 19 23.663   +34 33 35.55  2.7328 3.0218  97.4 22.0 .408 144
2019 12 07 05  11 19 25.822   +34 33 57.49  2.7324 3.0220  97.4 22.0 .433 144
2019 12 07 06  11 19 27.979   +34 34 19.46  2.7321 3.0221  97.5 22.0 .459 144
2019 12 07 07  11 19 30.135   +34 34 41.44  2.7318 3.0223  97.5 22.0 .485 144
2019 12 07 08  11 19 32.288   +34 35 03.44  2.7314 3.0225  97.5 22.0 .511 144
2019 12 07 09  11 19 34.439   +34 35 25.46  2.7311 3.0227  97.6 22.0 .538 144
2019 12 07 10  11 19 36.589   +34 35 47.49  2.7307 3.0229  97.6 22.0 .565 144
2019 12 07 11  11 19 38.736   +34 36 09.55  2.7304 3.0230  97.6 22.0 .593 145
2019 12 07 12  11 19 40.881   +34 36 31.62  2.7301 3.0232  97.7 22.0 .621 145
2019 12 07 13  11 19 43.024   +34 36 53.70  2.7297 3.0234  97.7 22.0 .650 145
2019 12 07 14  11 19 45.166   +34 37 15.81  2.7294 3.0236  97.7 22.0 .679 145
2019 12 07 15  11 19 47.305   +34 37 37.93  2.7290 3.0238  97.7 22.0 .709 145
2019 12 07 16  11 19 49.442   +34 38 00.07  2.7287 3.0240  97.8 22.0 .739 145
2019 12 07 17  11 19 51.577   +34 38 22.23  2.7284 3.0241  97.8 22.0 .769 145
2019 12 07 18  11 19 53.711   +34 38 44.40  2.7280 3.0243  97.8 22.0 .800 145
2019 12 07 19  11 19 55.842   +34 39 06.59  2.7277 3.0245  97.9 22.0 .831 145
2019 12 07 20  11 19 57.971   +34 39 28.80  2.7273 3.0247  97.9 22.0 .863 145
2019 12 07 21  11 20 00.098   +34 39 51.03  2.7270 3.0249  97.9 22.0 .895 145
2019 12 07 22  11 20 02.223   +34 40 13.28  2.7267 3.0250  98.0 22.0 .927 145
2019 12 07 23  11 20 04.346   +34 40 35.54  2.7263 3.0252  98.0 22.0 .960 145
2019 12 08 00  11 20 06.467   +34 40 57.82  2.7260 3.0254  98.0 22.0 0.99 145
2019 12 08 01  11 20 08.587   +34 41 20.12  2.7256 3.0256  98.1 22.0 1.03 145
2019 12 08 02  11 20 10.704   +34 41 42.43  2.7253 3.0258  98.1 22.0 1.06 145
2019 12 08 03  11 20 12.819   +34 42 04.76  2.7250 3.0259  98.1 22.0 1.10 145
2019 12 08 04  11 20 14.932   +34 42 27.11  2.7246 3.0261  98.2 22.0 1.13 145
2019 12 08 05  11 20 17.043   +34 42 49.48  2.7243 3.0263  98.2 22.0 1.17 145
2019 12 08 06  11 20 19.152   +34 43 11.87  2.7239 3.0265  98.2 22.0 1.20 145
2019 12 08 07  11 20 21.258   +34 43 34.27  2.7236 3.0267  98.3 22.0 1.24 145
2019 12 08 08  11 20 23.363   +34 43 56.69  2.7233 3.0268  98.3 22.0 1.28 145
2019 12 08 09  11 20 25.466   +34 44 19.13  2.7229 3.0270  98.3 22.0 1.31 145
2019 12 08 10  11 20 27.567   +34 44 41.58  2.7226 3.0272  98.4 22.0 1.35 145
2019 12 08 11  11 20 29.666   +34 45 04.05  2.7222 3.0274  98.4 22.0 1.39 145
2019 12 08 12  11 20 31.762   +34 45 26.54  2.7219 3.0276  98.4 22.0 1.43 145
2019 12 08 13  11 20 33.857   +34 45 49.05  2.7216 3.0278  98.5 22.0 1.47 145